Regional Weather Roundup
Issued by NWS San Diego, CA

Home | Current Version | Previous Version | Text Only | Print | Product List | Glossary On
Versions: 1 2 3 4 5 6 7 8 9 10 11 12 13 14 15 16 17 18 19 20 21 22 23 24 25 26 27 28 29 30 31 32 33 34 35 36 37 38 39 40 41 42 43 44 45 46 47 48 49 50
000
ASUS46 KSGX 300010
RWRSGX

SAN DIEGO HOURLY WEATHER ROUNDUP
NATIONAL WEATHER SERVICE SAN DIEGO CA
500 PM PDT FRI AUG 29 2014

NOTE: "FAIR" INDICATES FEW OR NO CLOUDS BELOW 12,000 FEET WITH NO
SIGNIFICANT WEATHER AND/OR OBSTRUCTIONS TO VISIBILITY.

CAZ042-043-060-061-PZZ750-775-300100-

GREATER SAN DIEGO AREA

CITY           SKY/WX    TMP DP  RH WIND       PRES   REMARKS
LINDBERGH FLD  MOSUNNY   76  63  64 W13       29.84S
POINT LOMA       N/A     73  63  71 NW16        N/A
NATIONAL CITY    N/A     77  66  68 NW3       29.83S
CHULA VISTA      N/A     78  68  72 W5        29.75F
IMPERIAL BEACH MOSUNNY   74  65  73 W14       29.83F
BROWN FIELD    SUNNY     76  64  66 W9        29.83S
MIRAMAR MCAS   MOSUNNY   76  63  64 W10       29.83S
MONTGOMERY FLD SUNNY     77  63  61 W9        29.83F

$$

NORTH SAN DIEGO COUNTY

CITY           SKY/WX    TMP DP  RH WIND       PRES   REMARKS
CAMP PENDLETON SUNNY     77  62  59 SW6       29.81S
OCEANSIDE AP   SUNNY     76  63  64 W9        29.81S
OCEANSIDE HBR    N/A     72  66  80 W6        29.84F
VISTA            N/A     78  66  66 W6        29.79F
CARLSBAD       SUNNY     73  63  70 SW6       29.82F
DEL MAR          N/A     75  67  75 CALM      29.85S
LA JOLLA SCRIP   N/A     72  67  85 W3        29.81S
FALLBROOK        N/A     81  63  54 SW6       29.79S
ESCONDIDO        N/A     83  65  55 W5        29.81S
SAN MARCOS       N/A     77  67  69 NW9       29.79F
POWAY            N/A     84  65  51 SW5       29.82R

$$

EAST SAN DIEGO COUNTY

CITY           SKY/WX    TMP DP  RH WIND       PRES   REMARKS
RAMONA         SUNNY     88  53  30 W8        29.85S
SANTEE LAKES     N/A     84  65  51 W12       29.81S
LA MESA          N/A     82  68  62 NW7       29.75F
JAMUL            N/A     87  65  47 W3        29.79S
DESCANSO N       N/A     89  46  22 W7        29.68S
MT. LAGUNA OBS   N/A     78  38  23 W5        29.71S
CAMPO            N/A     94  41  16 NW14      29.87R

$$

ORANGE COUNTY AND THE LOS ANGELES BASIN

CITY           SKY/WX    TMP DP  RH WIND       PRES   REMARKS
JOHN WAYNE AP  MOSUNNY   80  63  55 VRB7      29.81S
LAGUNA BEACH     N/A     78  68  71 CALM      29.77F
LAKE FOREST FR   N/A     87  60  40 CALM      29.69S
SANTA ANA        N/A     84  67  56 CALM      29.75F
HUNTINGTON BCH   N/A     75  67  76 SW6       29.82F
LOS ALAMITOS   SUNNY     82  58  43 S9        29.80F
FULLERTON      SUNNY     85  57  38 S8        29.79S
LONG BEACH     SUNNY     83  63  50 NW9       29.80S
L.A. AP        MOSUNNY   73  62  68 W14       29.82F
L.A. DOWNTOWN  SUNNY     79  62  56 W8        29.80S

$$

THE INLAND EMPIRE

CITY           SKY/WX    TMP DP  RH WIND       PRES   REMARKS
CORONA         SUNNY     89  62  40 W15G21    29.79R
CHINO          MOSUNNY   93  53  25 W14       29.80S
ONTARIO        MOSUNNY   95  47  19 W14       29.80S
SAN BERNARDINO SUNNY     99  37  12 W13       29.80F
RIVERSIDE AP   SUNNY     95  48  20 W10G20    29.79S
RIV CYN CREST    N/A     96  55  25 NW7       29.78F
MORENO VALLEY    N/A     99  44  15 W5        29.03F
MARCH ARB      SUNNY     96  46  17 NW13      29.83S
HORSETHIEF CYN   N/A     96  51  21 NW12      29.77S
PERRIS           N/A     96  43  16 W6        29.77F
MENIFEE          N/A    102  41  12 N7        29.85S HX  97
HEMET EAST       N/A     97  38  13 SW9       29.76F
FRENCH VALLEY  FAIR      91  55  29 S14       29.83S
TEMECULA         N/A     90  55  30 SW12      29.75F

$$

SAN BERNARDINO AND RIVERSIDE COUNTY MOUNTAINS

CITY           SKY/WX    TMP DP  RH WIND       PRES   REMARKS
BIG BEAR AP    SUNNY     79  34  19 W10       30.21S
ANGELUS OAKS     N/A     82  44  26 W2        29.71S
PINE COVE        N/A     79  35  20 NW2       29.72F

$$

SOUTHERN DESERT INCLUDING THE COACHELLA VALLEY

CITY           SKY/WX    TMP DP  RH WIND       PRES   REMARKS
PALM SPRINGS   SUNNY    112  32   6 NW23      29.68F HX 104
THOUSAND PALMS   N/A    110  36   8 NW6       29.62F HX 103
PALM DESERT      N/A    113  47  11 S3          N/A  HX 109
THERMAL        SUNNY    111  36   8 SE3       29.61F HX 104
BLYTHE         SUNNY    109  32   7 SE12      29.67F HX 101
IMPERIAL AP    SUNNY    111  35   7 E6        29.62F HX 104
EL CENTRO NAS  SUNNY    111  35   7 E7        29.62F HX 104
YUMA AZ        SUNNY    111  35   7 VRB6      29.65F HX 104
MEXICALI       SUNNY    111  32   6 SE6       29.65  HX 103

$$

UPPER DESERT

CITY           SKY/WX    TMP DP  RH WIND       PRES   REMARKS
VICTORVILLE AP SUNNY     99  30   9 S13       29.88S
HESPERIA         N/A     94  32  11 W9        29.85S
APPLE VALLEY     N/A     95  33  11 SW8G18    29.95S
PALMDALE       SUNNY     98  30   9 SW18      29.87S
LANCASTER      SUNNY     98  33  10 W18       29.86R
EDWARDS AFB    PTSUNNY  102  20   5 SW8       29.82F
DAGGETT        SUNNY    105  23   5 NW5       29.78F HX  97
29 PALMS N     SUNNY    105  31   7 VRB7      29.85F HX  98
NEEDLES        SUNNY    110  29   6 SE9       29.70F HX 102

$$

REGIONAL REPORTS

CITY           SKY/WX    TMP DP  RH WIND       PRES   REMARKS
SANTA BARBARA  SUNNY     75  61  61 S5        29.81F
SANDBERG       SUNNY     87  40  19 N16       30.06S
MT. WILSON       N/A     84  46  26 SW7         N/A
LAS VEGAS NV   MOSUNNY  104  30   7 SE12      29.76F HX  97
PHOENIX AZ     SUNNY    107  38   9 SW6       29.71F HX 101
TIJUANA        SUNNY     77  59  53 W14       29.85F
ENSENADA NW      N/A     78  32  18 W7        29.79S

$$

OFFSHORE ISLANDS

CITY           SKY/WX    TMP DP  RH WIND       PRES   REMARKS
CATALINA ARPT  SUNNY     71  59  65 SW8       29.87F
SAN NICOLAS IS MOSUNNY  N/A N/A N/A W26G33    29.84F

$$

MARINE AND OFFSHORE BUOY REPORTS

STATION/POSITION SKY/WX   TEMP    WIND        PRES    SWELL
                          AIR SEA DIR/SP/G            HT/PER/DIR
                          (F)     (DEG/KT/KT) (MB)    (FT/S/D)
TANNER BANKS               66 69  310/ 17/ 21 1010.9F   3/180/10
S CLEMENTE BASIN           67 71  290/ 17/ 21 1009.7F   3/200/11
SAN NICOLAS IS.               66                N/A     2/190/13
SO. S. ROSA ISLA           63 67  310/ 21/ 25 1010.3F   3/10
W. S. BARBARA CH           62 62  310/ 21/ 25 1010.1F   3/190/10
S. MONICA BASIN            70 73  270/  8/ 12 1009.7F   3/190/10
S PEDRO CHANNEL               73                N/A     2/170/15
DANA POINT                    72                N/A     2/190/11
CMP PENDLETON NS              75                N/A     2/210/15
OCEANSIDE OFFSHR              74                N/A     2/180/11
TORREY PINES OTR              74                N/A     2/200/11
LA JOLLA 1                 71 75  320/  6/  8 1010.2F
MISSION BAY BUOY              74                N/A     2/190/11
SAN DIEGO BAY                 76              1010.5S
POINT LOMA SOUTH              74                N/A     2/200/11

$$



USA.gov is the U.S. government's official web portal to all federal, state and local government web resources and services.